DW2128 Weather Reports


Display with metric or nautical units.
time (UTC)temp
F
wind
direction
speed
MPH
gust
MPH
rain 1hr
in
rain 24hr
in
rain mn
in
humidity
%
barometer
mb
20260508200525 71 251 1.0 0.0 0.00 0.00 0.00 48 1016.5
20260508200329 71 340 1.0 0.0 0.00 0.00 0.00 48 1016.6
20260508195023 71 259 0.0 0.0 0.00 0.00 0.00 48 1016.6
20260508194830 71 249 0.0 0.0 0.00 0.00 0.00 46 1016.6
20260508193539 70 13 0.0 0.0 0.00 0.00 0.00 47 1016.6
20260508193329 70 340 0.0 0.0 0.00 0.00 0.00 47 1016.8
20260508192042 69 277 1.0 0.0 0.00 0.00 0.00 48 1016.8
20260508191826 69 248 1.0 0.0 0.00 0.00 0.00 47 1017.0
20260508190519 69 17 0.0 0.0 0.00 0.00 0.00 49 1017.0
20260508190345 69 318 0.0 0.0 0.00 0.00 0.00 50 1016.9
20260508185037 68 355 1.0 0.0 0.00 0.00 0.00 48 1016.9
20260508184826 68 360 1.0 0.0 0.00 0.00 0.00 48 1017.1
20260508183559 67 18 1.0 0.0 0.00 0.00 0.00 49 1017.1
20260508183323 67 300 0.0 0.0 0.00 0.00 0.00 48 1017.2
20260508182036 67 5 1.0 0.0 0.00 0.00 0.00 51 1017.2
20260508181821 67 9 0.0 0.0 0.00 0.00 0.00 51 1017.2
20260508180538 66 9 0.0 0.0 0.00 0.00 0.00 52 1017.2
20260508180327 66 311 0.0 0.0 0.00 0.00 0.00 52 1017.3
20260508175020 65 26 0.0 0.0 0.00 0.00 0.00 53 1017.3
20260508174823 65 26 0.0 0.0 0.00 0.00 0.00 53 1017.4
20260508173536 63 342 0.0 0.0 0.00 0.00 0.00 56 1017.4
20260508173401 63 322 0.0 0.0 0.00 0.00 0.00 56 1017.3
20260508172034 62 309 0.0 0.0 0.00 0.00 0.00 58 1017.3
20260508171826 62 312 0.0 0.0 0.00 0.00 0.00 58 1017.4
20260508170541 61 11 1.0 0.0 0.00 0.00 0.00 59 1017.4
20260508170322 61 11 1.0 0.0 0.00 0.00 0.00 60 1017.4
20260508165036 59 276 0.0 0.0 0.00 0.00 0.00 63 1017.4
20260508164823 59 303 0.0 0.0 0.00 0.00 0.00 63 1017.5
20260508163532 59 19 1.0 0.0 0.00 0.00 0.00 64 1017.5
20260508163341 59 19 1.0 0.0 0.00 0.00 0.00 64 1017.6
20260508162035 58 313 0.0 0.0 0.00 0.00 0.00 66 1017.6
20260508161838 58 313 0.0 0.0 0.00 0.00 0.00 67 1017.7
20260508160556 56 312 0.0 0.0 0.00 0.00 0.00 72 1017.7
20260508160323 55 312 0.0 0.0 0.00 0.00 0.00 72 1017.7
20260508155052 55 312 0.0 0.0 0.00 0.00 0.00 72 1017.7
20260508154839 55 312 0.0 0.0 0.00 0.00 0.00 72 1017.8
20260508153532 55 312 0.0 0.0 0.00 0.00 0.00 72 1017.8
20260508153337 55 312 0.0 0.0 0.00 0.00 0.00 72 1017.8
20260508152034 55 311 0.0 0.0 0.00 0.00 0.00 73 1017.8
20260508151824 55 311 1.0 0.0 0.00 0.00 0.00 73 1017.7
20260508150532 55 286 0.0 0.0 0.00 0.00 0.00 74 1017.7
20260508150324 55 285 0.0 0.0 0.00 0.00 0.00 74 1017.7
20260508145037 55 286 1.0 0.0 0.00 0.00 0.00 75 1017.7
20260508144902 55 286 1.0 0.0 0.00 0.00 0.00 75 1017.6
20260508143535 55 284 0.0 0.0 0.00 0.00 0.00 76 1017.6
20260508143327 55 284 0.0 0.0 0.00 0.00 0.00 76 1017.3
20260508142020 54 283 0.0 0.0 0.00 0.00 0.00 76 1017.3
20260508141826 54 283 0.0 0.0 0.00 0.00 0.00 76 1017.2
20260508140524 54 283 0.0 0.0 0.00 0.00 0.00 77 1017.2
20260508140330 54 283 0.0 0.0 0.00 0.00 0.00 77 1017.2
20260508135025 54 283 0.0 0.0 0.00 0.00 0.00 78 1017.2
20260508134833 54 283 0.0 0.0 0.00 0.00 0.00 78 1016.9
20260508133527 54 282 0.0 0.0 0.00 0.00 0.00 78 1016.9
20260508133332 54 282 0.0 0.0 0.00 0.00 0.00 78 1016.7
20260508132027 54 282 0.0 0.0 0.00 0.00 0.00 78 1016.7
20260508131832 54 282 0.0 0.0 0.00 0.00 0.00 78 1016.7
20260508130526 54 282 0.0 0.0 0.00 0.00 0.00 78 1016.7
20260508130336 54 282 0.0 0.0 0.00 0.00 0.00 78 1016.8
20260508125030 54 282 0.0 0.0 0.00 0.00 0.00 78 1016.8
20260508124835 54 282 0.0 0.0 0.00 0.00 0.00 78 1016.8
20260508123529 54 282 0.0 0.0 0.00 0.00 0.00 79 1016.8
20260508123401 54 282 0.0 0.0 0.00 0.00 0.00 79 1016.9
20260508122034 54 282 0.0 0.0 0.00 0.00 0.00 79 1016.9
20260508121839 54 282 0.0 0.0 0.00 0.00 0.00 79 1016.8
20260508120535 54 281 0.0 0.0 0.00 0.00 0.00 79 1016.8
20260508120400 54 281 0.0 0.0 0.00 0.00 0.00 79 1016.7
20260508115032 54 281 0.0 0.0 0.00 0.00 0.00 80 1016.7
20260508114841 54 281 0.0 0.0 0.00 0.00 0.00 80 1016.7
20260508113533 54 281 0.0 0.0 0.00 0.00 0.00 80 1016.7
20260508113338 54 281 0.0 0.0 0.00 0.00 0.00 80 1016.8
20260508112031 54 281 0.0 0.0 0.00 0.00 0.00 80 1016.8
20260508111836 54 281 0.0 0.0 0.00 0.00 0.00 80 1016.7
20260508110529 54 281 0.0 0.0 0.00 0.00 0.00 80 1016.7
20260508110337 54 281 1.0 0.0 0.00 0.00 0.00 80 1016.7
20260508105034 54 5 1.0 0.0 0.00 0.00 0.00 80 1016.7
20260508104840 54 5 1.0 0.0 0.00 0.00 0.00 80 1016.7
20260508103535 54 5 0.0 0.0 0.00 0.00 0.00 81 1016.7
20260508103359 54 5 0.0 0.0 0.00 0.00 0.00 80 1016.7
20260508102031 55 5 0.0 0.0 0.00 0.00 0.00 80 1016.7
20260508101840 55 5 0.0 0.0 0.00 0.00 0.00 80 1016.6
20260508100535 55 5 0.0 0.0 0.00 0.00 0.00 81 1016.6
20260508100339 55 5 0.0 0.0 0.00 0.00 0.00 81 1016.7
20260508095053 55 5 0.0 0.0 0.00 0.00 0.00 81 1016.7
20260508094837 55 5 0.0 0.0 0.00 0.00 0.00 81 1016.7
20260508093550 55 5 0.0 0.0 0.00 0.00 0.00 81 1016.7
20260508093338 55 5 0.0 0.0 0.00 0.00 0.00 81 1016.7
20260508092033 55 5 0.0 0.0 0.00 0.00 0.00 80 1016.7
20260508091838 55 5 0.0 0.0 0.00 0.00 0.00 81 1016.8
20260508090533 55 5 0.0 0.0 0.00 0.00 0.00 81 1016.8
20260508090342 55 5 0.0 0.0 0.00 0.00 0.00 81 1016.7
20260508085052 55 5 0.0 0.0 0.00 0.00 0.00 81 1016.7
20260508084819 55 5 0.0 0.0 0.00 0.00 0.00 81 1016.8
20260508083537 55 5 0.0 0.0 0.00 0.00 0.00 82 1016.8
20260508083341 55 5 0.0 0.0 0.00 0.00 0.00 82 1017.1
20260508082034 55 5 0.0 0.0 0.00 0.00 0.00 82 1017.1
20260508081823 55 5 0.0 0.0 0.00 0.00 0.00 82 1017.1
20260508080536 55 5 0.0 0.0 0.00 0.00 0.00 82 1017.1
20260508080402 55 5 0.0 0.0 0.00 0.00 0.00 82 1017.1
20260508075033 55 5 0.0 0.0 0.00 0.00 0.00 82 1017.1
20260508074837 55 5 0.0 0.0 0.00 0.00 0.00 82 1017.1
20260508073531 56 5 0.0 0.0 0.00 0.00 0.00 82 1017.1
20260508073400 56 5 0.0 0.0 0.00 0.00 0.00 82 1017.1
20260508072033 56 5 0.0 0.0 0.00 0.00 0.00 82 1017.1
20260508071838 56 5 0.0 0.0 0.00 0.00 0.00 82 1016.9
20260508070551 56 5 0.0 0.0 0.00 0.00 0.00 82 1016.9
20260508070356 56 5 0.0 0.0 0.00 0.00 0.00 82 1016.8
20260508065029 56 5 0.0 0.0 0.00 0.00 0.00 82 1016.8
20260508064833 56 5 0.0 0.0 0.00 0.00 0.00 82 1016.7
20260508063526 56 5 1.0 0.0 0.00 0.00 0.00 81 1016.7
20260508063335 56 5 2.0 0.0 0.00 0.00 0.00 81 1016.7
20260508062028 57 5 1.0 0.0 0.00 0.00 0.00 81 1016.7
20260508061835 57 355 0.0 0.0 0.00 0.00 0.00 81 1016.8
20260508060529 57 5 0.0 0.0 0.00 0.00 0.00 81 1016.8
20260508060338 57 5 0.0 0.0 0.00 0.00 0.00 81 1016.7
20260508055033 57 342 0.0 0.0 0.00 0.00 0.00 81 1016.7
20260508054837 57 342 0.0 0.0 0.00 0.00 0.00 81 1016.7
20260508053534 57 246 0.0 0.0 0.00 0.00 0.00 81 1016.7
20260508053337 57 246 0.0 0.0 0.00 0.00 0.00 81 1016.7
20260508052053 57 241 0.0 0.0 0.00 0.00 0.00 81 1016.7
20260508051822 57 241 0.0 0.0 0.00 0.00 0.00 80 1016.7
20260508050540 57 241 0.0 0.0 0.00 0.00 0.00 80 1016.7
20260508050322 57 343 0.0 0.0 0.00 0.00 0.00 80 1016.7
20260508045036 58 343 0.0 0.0 0.00 0.00 0.00 79 1016.7
20260508044859 58 343 0.0 0.0 0.00 0.00 0.00 79 1016.6
20260508043552 58 315 0.0 0.0 0.00 0.00 0.00 77 1016.6
20260508043335 58 315 0.0 0.0 0.00 0.00 0.00 77 1016.3
20260508042030 58 315 0.0 0.0 0.00 0.00 0.00 75 1016.3
20260508041840 58 315 0.0 0.0 0.00 0.00 0.00 75 1016.2
20260508040534 59 315 0.0 0.0 0.00 0.00 0.00 74 1016.2
20260508040358 59 315 0.0 0.0 0.00 0.00 0.00 74 1015.9
20260508035033 59 315 0.0 0.0 0.00 0.00 0.00 72 1015.9
20260508034825 59 315 0.0 0.0 0.00 0.00 0.00 72 1015.8
20260508033534 60 315 0.0 0.0 0.00 0.00 0.00 70 1015.8
20260508033322 60 315 0.0 0.0 0.00 0.00 0.00 70 1015.7
20260508032036 61 315 0.0 0.0 0.00 0.00 0.00 68 1015.7
20260508031839 61 315 0.0 0.0 0.00 0.00 0.00 67 1015.6
20260508030552 62 315 0.0 0.0 0.00 0.00 0.00 66 1015.6
20260508030336 62 315 0.0 0.0 0.00 0.00 0.00 65 1015.5
20260508025030 63 329 0.0 0.0 0.00 0.00 0.00 63 1015.5
20260508024839 64 329 0.0 0.0 0.00 0.00 0.00 63 1015.3
20260508023553 65 329 0.0 0.0 0.00 0.00 0.00 60 1015.3
20260508023338 65 329 0.0 0.0 0.00 0.00 0.00 59 1015.2
20260508022031 67 9 1.0 0.0 0.00 0.00 0.00 58 1015.2
20260508021840 67 9 0.0 0.0 0.00 0.00 0.00 57 1015.2
20260508020551 68 259 1.0 0.0 0.00 0.00 0.00 55 1015.2
20260508020338 68 259 0.0 0.0 0.00 0.00 0.00 55 1015.2
20260508015037 69 355 1.0 0.0 0.00 0.00 0.00 55 1015.2
20260508014842 69 355 1.0 0.0 0.00 0.00 0.00 54 1015.1
20260508013534 70 248 1.0 0.0 0.00 0.00 0.00 53 1015.1
20260508013324 70 281 1.0 0.0 0.00 0.00 0.00 53 1015.1
20260508012017 71 236 1.0 0.0 0.00 0.00 0.00 52 1015.1
20260508011825 72 9 1.0 0.0 0.00 0.00 0.00 52 1015.0
20260508010538 72 282 1.0 0.0 0.00 0.00 0.00 52 1015.0
20260508010324 72 281 1.0 0.0 0.00 0.00 0.00 52 1015.1
20260508005021 73 221 1.0 0.0 0.00 0.00 0.00 52 1015.1
20260508004830 73 215 1.0 0.0 0.00 0.00 0.00 51 1014.9
20260508003524 75 246 0.0 0.0 0.00 0.00 0.00 49 1014.9
20260508003328 75 246 0.0 0.0 0.00 0.00 0.00 49 1014.8
20260508002024 75 285 1.0 0.0 0.00 0.00 0.00 49 1014.8
20260508001830 75 284 0.0 0.0 0.00 0.00 0.00 50 1014.6
20260508000524 76 246 1.0 0.0 0.00 0.00 0.00 45 1014.7
20260508000357 76 290 1.0 0.0 0.00 0.00 0.00 45 1014.6
20260507235030 77 261 1.0 0.0 0.00 0.00 0.00 41 1014.6
20260507234838 77 5 1.0 0.0 0.00 0.00 0.00 42 1014.6
20260507233533 77 19 1.0 0.0 0.00 0.00 0.00 40 1014.6
20260507233322 77 19 1.0 0.0 0.00 0.00 0.00 40 1014.7
20260507232051 77 345 2.0 0.0 0.00 0.00 0.00 42 1014.7
20260507231838 77 15 2.0 0.0 0.00 0.00 0.00 43 1014.7
20260507230532 77 263 0.0 0.0 0.00 0.00 0.00 44 1014.7
20260507230337 77 263 1.0 0.0 0.00 0.00 0.00 45 1014.9
20260507225034 76 22 1.0 0.0 0.00 0.00 0.00 47 1014.9
20260507224823 76 344 0.0 0.0 0.00 0.00 0.00 47 1015.1
20260507223540 77 22 2.0 0.0 0.00 0.00 0.00 43 1015.1
20260507223342 77 19 1.0 0.0 0.00 0.00 0.00 43 1015.2
20260507222036 76 233 1.0 0.0 0.00 0.00 0.00 44 1015.2
20260507221840 76 230 1.0 0.0 0.00 0.00 0.00 45 1015.2
20260507220535 76 242 1.0 0.0 0.00 0.00 0.00 46 1015.2
20260507220323 76 242 1.0 0.0 0.00 0.00 0.00 47 1015.3
20260507215037 75 23 1.0 0.0 0.00 0.00 0.00 47 1015.3
20260507214822 75 22 1.0 0.0 0.00 0.00 0.00 48 1015.5
20260507213536 73 251 2.0 0.0 0.00 0.00 0.00 52 1015.5
20260507213324 73 249 2.0 0.0 0.00 0.00 0.00 51 1015.7
20260507212034 73 304 0.0 0.0 0.00 0.00 0.00 49 1015.7
20260507211823 73 304 0.0 0.0 0.00 0.00 0.00 51 1015.9
20260507210520 72 304 1.0 0.0 0.00 0.00 0.00 53 1015.8
20260507210324 72 53 0.0 0.0 0.00 0.00 0.00 53 1016.1
20260507205058 71 28 1.0 0.0 0.00 0.00 0.00 54 1016.1
20260507204826 71 28 1.0 0.0 0.00 0.00 0.00 53 1016.2
20260507203521 70 232 1.0 0.0 0.00 0.00 0.00 55 1016.2
20260507203326 70 232 1.0 0.0 0.00 0.00 0.00 54 1016.3
20260507202020 69 25 0.0 0.0 0.00 0.00 0.00 56 1016.3
20260507201827 69 287 0.0 0.0 0.00 0.00 0.00 56 1016.5